WZZ1329 EPWA-LDDU

Flight info

Callsign WZZ1329
Flight time N/A
Altitude 38000
Route EVINA M66 BABKO DCT BALAP DCT BAREB/N0446F370 DCT CE DCT ADULA DCT VIBOP/N0454F380 DCT NETKO
Aircraft A321/M-SDE3FGHIRWY/LB1

Departure

Time N/A
Airport Warsaw Chopin Airport (EPWA)

Arrival

Time 2026-04-30 15:03
Airport Dubrovnik Ruđer Bošković Airport (LDDU)
Time Latitude Longitude Altitude Speed Heading
2026-04-30 13:36 51.93615 20.44835 13185 ft 374 kts 197°
2026-04-30 13:37 51.91071 20.43903 13840 ft 377 kts 185°
2026-04-30 13:37 51.85790 20.43088 15049 ft 385 kts 182°
2026-04-30 13:38 51.80394 20.42294 16272 ft 393 kts 182°
2026-04-30 13:38 51.77659 20.41867 16886 ft 397 kts 182°
2026-04-30 13:38 51.72099 20.41023 18103 ft 405 kts 182°
2026-04-30 13:39 51.66436 20.40164 19243 ft 413 kts 182°
2026-04-30 13:39 51.60664 20.39300 20301 ft 421 kts 182°
2026-04-30 13:40 51.57734 20.38860 20835 ft 425 kts 182°
2026-04-30 13:40 51.54816 20.38423 21359 ft 428 kts 182°
2026-04-30 13:40 51.51829 20.37974 21888 ft 433 kts 182°
2026-04-30 13:40 51.48822 20.37507 22420 ft 437 kts 182°
2026-04-30 13:41 51.45781 20.37048 22944 ft 440 kts 181°
2026-04-30 13:41 51.42716 20.36596 23469 ft 444 kts 181°
2026-04-30 13:41 51.39629 20.36066 23966 ft 449 kts 186°
2026-04-30 13:41 51.36561 20.34908 24368 ft 456 kts 195°
2026-04-30 13:42 51.33535 20.33312 24756 ft 460 kts 196°
2026-04-30 13:42 51.30481 20.31692 25147 ft 464 kts 195°
2026-04-30 13:42 51.24289 20.28471 25891 ft 472 kts 195°
2026-04-30 13:43 51.21158 20.26845 26280 ft 474 kts 195°
2026-04-30 13:43 51.18014 20.25219 26673 ft 477 kts 195°
2026-04-30 13:43 51.14845 20.23585 27036 ft 480 kts 195°
2026-04-30 13:43 51.13770 20.23030 27156 ft 481 kts 195°
2026-04-30 13:44 51.11999 20.22115 27350 ft 483 kts 195°
2026-04-30 13:44 51.08794 20.20456 27692 ft 486 kts 195°
2026-04-30 13:44 51.05559 20.18797 28035 ft 490 kts 194°
2026-04-30 13:44 51.02304 20.17137 28368 ft 493 kts 194°
2026-04-30 13:45 50.95740 20.13779 29095 ft 498 kts 194°
2026-04-30 13:45 50.92437 20.12087 29417 ft 500 kts 194°
2026-04-30 13:45 50.89114 20.10400 29730 ft 503 kts 194°
2026-04-30 13:46 50.85770 20.08698 30033 ft 506 kts 194°
2026-04-30 13:46 50.82403 20.06975 30309 ft 509 kts 194°
2026-04-30 13:46 50.79029 20.05256 30579 ft 512 kts 194°
2026-04-30 13:46 50.75627 20.03536 30873 ft 513 kts 194°
2026-04-30 13:47 50.72230 20.01808 31178 ft 513 kts 194°
2026-04-30 13:47 50.68830 20.00086 31524 ft 512 kts 195°
2026-04-30 13:47 50.65494 19.98395 31936 ft 510 kts 195°
2026-04-30 13:47 50.62081 19.96668 32326 ft 507 kts 195°
2026-04-30 13:48 50.58767 19.95004 32672 ft 506 kts 195°
2026-04-30 13:48 50.55414 19.93320 32995 ft 505 kts 195°
2026-04-30 13:48 50.52071 19.91641 33353 ft 503 kts 195°
2026-04-30 13:48 50.48741 19.89978 33686 ft 502 kts 195°
2026-04-30 13:49 50.45413 19.88312 33989 ft 502 kts 195°
2026-04-30 13:49 50.42087 19.86654 34284 ft 502 kts 195°
2026-04-30 13:49 50.38759 19.84994 34539 ft 502 kts 195°
2026-04-30 13:49 50.35433 19.83335 34789 ft 501 kts 195°
2026-04-30 13:50 50.32114 19.81692 35029 ft 500 kts 196°
2026-04-30 13:50 50.25501 19.78399 35548 ft 497 kts 196°
2026-04-30 13:50 50.22202 19.76763 35783 ft 497 kts 196°
2026-04-30 13:51 50.18910 19.75123 36010 ft 496 kts 196°
2026-04-30 13:51 50.15622 19.73508 36229 ft 496 kts 196°
2026-04-30 13:51 50.12325 19.71894 36459 ft 495 kts 196°
2026-04-30 13:51 50.09041 19.70284 36696 ft 494 kts 197°
2026-04-30 13:52 50.05774 19.68661 36940 ft 493 kts 197°
2026-04-30 13:52 50.02542 19.67065 37139 ft 493 kts 197°
2026-04-30 13:52 49.99275 19.65474 37334 ft 492 kts 197°
2026-04-30 13:52 49.96009 19.63880 37510 ft 492 kts 197°
2026-04-30 13:53 49.92751 19.62287 37691 ft 491 kts 197°
2026-04-30 13:53 49.89490 19.60692 37857 ft 491 kts 197°
2026-04-30 13:53 49.86233 19.59093 38041 ft 490 kts 197°
2026-04-30 13:53 49.82981 19.57505 38217 ft 490 kts 197°
2026-04-30 13:54 49.79726 19.55926 38345 ft 490 kts 197°
2026-04-30 13:54 49.76481 19.54355 38379 ft 489 kts 197°
2026-04-30 13:54 49.69999 19.51198 38382 ft 488 kts 197°
2026-04-30 13:55 49.63517 19.48069 38383 ft 487 kts 197°
2026-04-30 13:55 49.56863 19.46264 38384 ft 486 kts 184°
2026-04-30 13:56 49.50122 19.45327 38383 ft 486 kts 184°
2026-04-30 13:56 49.43373 19.44348 38387 ft 487 kts 184°
2026-04-30 13:57 49.36621 19.43358 38382 ft 488 kts 184°
2026-04-30 13:57 49.29858 19.42384 38378 ft 488 kts 184°
2026-04-30 13:58 49.19702 19.40909 38397 ft 488 kts 185°
2026-04-30 13:59 49.12982 19.39945 38384 ft 487 kts 185°
2026-04-30 13:59 49.06239 19.38965 38383 ft 487 kts 185°
2026-04-30 14:00 48.99495 19.38007 38360 ft 487 kts 185°
2026-04-30 14:00 48.89382 19.36570 38364 ft 487 kts 185°
2026-04-30 14:01 48.82632 19.35609 38359 ft 487 kts 185°
2026-04-30 14:01 48.75886 19.34658 38355 ft 487 kts 185°
2026-04-30 14:02 48.69137 19.33693 38348 ft 487 kts 185°
2026-04-30 14:02 48.62385 19.32744 38346 ft 487 kts 185°
2026-04-30 14:03 48.55628 19.31802 38351 ft 487 kts 185°
2026-04-30 14:03 48.48876 19.30841 38362 ft 487 kts 185°
2026-04-30 14:04 48.42122 19.29898 38353 ft 487 kts 185°
2026-04-30 14:04 48.35373 19.28964 38365 ft 487 kts 185°
2026-04-30 14:05 48.28675 19.28027 38364 ft 486 kts 185°
2026-04-30 14:05 48.21934 19.27098 38371 ft 486 kts 185°
2026-04-30 14:06 48.11843 19.25703 38372 ft 486 kts 185°
2026-04-30 14:07 48.03021 19.23617 38372 ft 485 kts 194°
2026-04-30 14:08 47.93213 19.19891 38381 ft 485 kts 194°
2026-04-30 14:08 47.83401 19.16226 38388 ft 484 kts 194°
2026-04-30 14:09 47.76873 19.13796 38380 ft 483 kts 194°
2026-04-30 14:10 47.67088 19.10154 38378 ft 483 kts 194°
2026-04-30 14:10 47.60576 19.07741 38388 ft 482 kts 194°
2026-04-30 14:11 47.54066 19.05326 38380 ft 482 kts 194°
2026-04-30 14:11 47.47567 19.02937 38370 ft 481 kts 194°
2026-04-30 14:12 47.41114 19.00564 38378 ft 480 kts 194°
2026-04-30 14:12 47.34633 18.98194 38387 ft 479 kts 194°
2026-04-30 14:13 47.28177 18.95831 38377 ft 479 kts 194°
2026-04-30 14:13 47.21664 18.93449 38368 ft 476 kts 194°
2026-04-30 14:14 47.15281 18.91122 38368 ft 476 kts 194°
2026-04-30 14:14 47.08845 18.88793 38370 ft 476 kts 194°
2026-04-30 14:15 47.02414 18.86471 38373 ft 476 kts 194°
2026-04-30 14:15 46.95995 18.84147 38369 ft 475 kts 195°
2026-04-30 14:16 46.89571 18.81828 38380 ft 475 kts 194°
2026-04-30 14:16 46.83151 18.79523 38364 ft 474 kts 195°
2026-04-30 14:17 46.76737 18.77210 38372 ft 474 kts 195°
2026-04-30 14:17 46.70330 18.74928 38368 ft 474 kts 195°
2026-04-30 14:18 46.63926 18.72640 38366 ft 474 kts 195°
2026-04-30 14:18 46.54312 18.69220 38364 ft 474 kts 195°
2026-04-30 14:19 46.44753 18.65839 38356 ft 473 kts 195°
2026-04-30 14:20 46.38360 18.63574 38357 ft 473 kts 195°
2026-04-30 14:20 46.28756 18.60186 38367 ft 473 kts 195°
2026-04-30 14:21 46.22350 18.57934 38355 ft 473 kts 195°
2026-04-30 14:22 46.12751 18.54587 38357 ft 472 kts 195°
2026-04-30 14:22 46.03178 18.51240 38348 ft 472 kts 196°
2026-04-30 14:23 45.90412 18.46796 38363 ft 471 kts 196°
2026-04-30 14:24 45.80892 18.43518 38347 ft 472 kts 193°
2026-04-30 14:25 45.74274 18.43173 38349 ft 477 kts 174°
2026-04-30 14:25 45.67940 18.45772 38357 ft 480 kts 155°
2026-04-30 14:26 45.58877 18.51946 38346 ft 481 kts 155°
2026-04-30 14:27 45.49597 18.57084 38348 ft 479 kts 169°
2026-04-30 14:27 45.43066 18.59125 38347 ft 479 kts 169°
2026-04-30 14:28 45.33310 18.62223 38347 ft 479 kts 169°
2026-04-30 14:28 45.26804 18.64261 38352 ft 478 kts 169°
2026-04-30 14:29 45.14900 18.68030 38344 ft 479 kts 169°
2026-04-30 14:31 44.97478 18.70943 38337 ft 469 kts 195°
2026-04-30 14:31 44.88418 18.66296 38345 ft 463 kts 205°
2026-04-30 14:32 44.79442 18.61240 38340 ft 463 kts 205°
2026-04-30 14:33 44.73459 18.57895 38345 ft 463 kts 205°
2026-04-30 14:33 44.64484 18.52890 38340 ft 462 kts 205°
2026-04-30 14:34 44.58514 18.49575 38341 ft 461 kts 205°
2026-04-30 14:34 44.52558 18.46258 38294 ft 460 kts 205°
2026-04-30 14:35 44.46680 18.43004 37757 ft 456 kts 205°
2026-04-30 14:35 44.43734 18.41371 37479 ft 454 kts 206°
2026-04-30 14:35 44.40796 18.39749 37217 ft 454 kts 205°
2026-04-30 14:36 44.37881 18.38146 36964 ft 454 kts 205°
2026-04-30 14:36 44.34925 18.36522 36710 ft 453 kts 206°
2026-04-30 14:36 44.31986 18.34905 36457 ft 453 kts 206°
2026-04-30 14:36 44.29052 18.33293 36207 ft 453 kts 206°
2026-04-30 14:37 44.26125 18.31681 35941 ft 453 kts 206°
2026-04-30 14:37 44.23190 18.30064 35697 ft 451 kts 206°
2026-04-30 14:37 44.20276 18.28466 35453 ft 449 kts 206°
2026-04-30 14:37 44.17367 18.26885 35214 ft 447 kts 206°
2026-04-30 14:38 44.14477 18.25307 34971 ft 445 kts 206°
2026-04-30 14:38 44.11600 18.23737 34614 ft 442 kts 206°
2026-04-30 14:38 44.08740 18.22173 33989 ft 440 kts 206°
2026-04-30 14:38 44.05902 18.20623 33470 ft 435 kts 206°
2026-04-30 14:39 44.03101 18.19093 32942 ft 430 kts 206°
2026-04-30 14:39 44.00337 18.17581 32440 ft 425 kts 206°
2026-04-30 14:39 43.97595 18.16087 31926 ft 421 kts 206°
2026-04-30 14:40 43.92191 18.13165 30907 ft 413 kts 207°
2026-04-30 14:40 43.89539 18.11725 30442 ft 409 kts 207°
2026-04-30 14:40 43.86899 18.10291 29892 ft 405 kts 207°
2026-04-30 14:40 43.84287 18.08884 29419 ft 400 kts 206°
2026-04-30 14:41 43.81707 18.07493 28939 ft 396 kts 206°
2026-04-30 14:41 43.79177 18.06128 28455 ft 393 kts 206°
2026-04-30 14:41 43.76639 18.04757 27989 ft 391 kts 206°
2026-04-30 14:41 43.74112 18.03395 27505 ft 389 kts 206°
2026-04-30 14:42 43.71598 18.02037 27029 ft 386 kts 206°
2026-04-30 14:42 43.69100 18.00692 26570 ft 385 kts 206°
2026-04-30 14:42 43.66612 17.99363 26099 ft 383 kts 205°
2026-04-30 14:42 43.64130 17.98038 25622 ft 381 kts 206°
2026-04-30 14:43 43.61667 17.96710 25151 ft 380 kts 205°
2026-04-30 14:43 43.59209 17.95390 24684 ft 378 kts 205°
2026-04-30 14:43 43.56755 17.94072 24203 ft 378 kts 206°
2026-04-30 14:43 43.54308 17.92761 23738 ft 376 kts 205°
2026-04-30 14:44 43.51876 17.91459 23210 ft 373 kts 205°
2026-04-30 14:44 43.49502 17.90190 22765 ft 368 kts 207°
2026-04-30 14:44 43.47130 17.88921 22295 ft 364 kts 205°
2026-04-30 14:44 43.44780 17.87669 21841 ft 360 kts 205°
2026-04-30 14:45 43.42457 17.86429 21387 ft 357 kts 205°
2026-04-30 14:45 43.40148 17.85202 20930 ft 353 kts 205°
2026-04-30 14:45 43.37867 17.83992 20493 ft 350 kts 206°
2026-04-30 14:45 43.35599 17.82782 20037 ft 349 kts 205°
2026-04-30 14:46 43.33334 17.81582 19585 ft 348 kts 205°
2026-04-30 14:46 43.31078 17.80384 19150 ft 346 kts 205°
2026-04-30 14:46 43.28831 17.79192 18684 ft 345 kts 206°
2026-04-30 14:46 43.27349 17.78408 18380 ft 344 kts 206°
2026-04-30 14:47 43.24371 17.76827 17740 ft 342 kts 206°
2026-04-30 14:47 43.22162 17.75659 17285 ft 339 kts 204°
2026-04-30 14:47 43.19997 17.74514 16840 ft 337 kts 204°
2026-04-30 14:47 43.17792 17.73352 16389 ft 334 kts 204°
2026-04-30 14:48 43.15654 17.72223 15954 ft 333 kts 204°
2026-04-30 14:48 43.13474 17.71067 15491 ft 331 kts 204°
2026-04-30 14:48 43.11361 17.69953 15068 ft 329 kts 204°
2026-04-30 14:48 43.09225 17.68821 14634 ft 328 kts 204°
2026-04-30 14:49 43.07097 17.67700 14200 ft 327 kts 203°
2026-04-30 14:49 43.04974 17.66582 13753 ft 326 kts 205°
2026-04-30 14:49 43.02975 17.65157 13316 ft 322 kts 214°
2026-04-30 14:49 43.01095 17.63523 12906 ft 319 kts 216°
2026-04-30 14:50 42.97360 17.60280 12067 ft 317 kts 215°
2026-04-30 14:50 42.95509 17.58670 11720 ft 313 kts 214°
2026-04-30 14:51 42.91687 17.56450 11492 ft 292 kts 182°
2026-04-30 14:51 42.89707 17.56744 11266 ft 285 kts 159°
2026-04-30 14:51 42.86576 17.59764 10597 ft 276 kts 131°
2026-04-30 14:52 42.85249 17.61628 10276 ft 270 kts 130°
2026-04-30 14:52 42.82645 17.65285 9492 ft 264 kts 131°
2026-04-30 14:52 42.81374 17.67055 9182 ft 258 kts 129°
2026-04-30 14:53 42.78921 17.70460 8580 ft 247 kts 129°
2026-04-30 14:53 42.77751 17.72150 8283 ft 243 kts 123°
2026-04-30 14:54 42.76101 17.76007 7699 ft 235 kts 114°
2026-04-30 14:54 42.74589 17.79904 7106 ft 230 kts 114°
2026-04-30 14:55 42.73108 17.83705 6531 ft 225 kts 114°
2026-04-30 14:55 42.72377 17.85578 6227 ft 223 kts 114°
2026-04-30 14:55 42.70922 17.89284 5649 ft 221 kts 115°
2026-04-30 14:56 42.69483 17.92945 5070 ft 218 kts 114°
2026-04-30 14:56 42.68295 17.95982 4595 ft 227 kts 114°
2026-04-30 14:57 42.67544 17.97901 4487 ft 225 kts 115°
2026-04-30 14:57 42.65991 18.01832 4277 ft 184 kts 114°
2026-04-30 14:58 42.65029 18.04285 3883 ft 169 kts 113°
2026-04-30 14:58 42.64485 18.05671 3659 ft 164 kts 113°
2026-04-30 14:58 42.63455 18.08286 3250 ft 149 kts 113°
2026-04-30 14:59 42.62526 18.10645 2863 ft 138 kts 112°
2026-04-30 15:00 42.61180 18.14064 2317 ft 136 kts 112°
2026-04-30 15:00 42.60296 18.16305 1950 ft 135 kts 112°
2026-04-30 15:01 42.59414 18.18541 1590 ft 134 kts 112°
2026-04-30 15:01 42.58971 18.19654 1447 ft 134 kts 115°
2026-04-30 15:01 42.58098 18.21855 1078 ft 131 kts 113°
2026-04-30 15:02 42.57677 18.22949 907 ft 131 kts 114°
2026-04-30 15:02 42.57232 18.24039 754 ft 133 kts 115°
2026-04-30 15:03 42.56255 18.26530 521 ft 36 kts 118°
2026-04-30 15:03 42.56112 18.26502 521 ft 14 kts 243°
2026-04-30 15:04 42.56051 18.26398 521 ft 0 kts 208°